Location: ??????????
(54.4061°N, 22.6114°E)
Time: 16:03:57
(UTC+00:00)

STARLINK-30 - Pass Details

Date: 23 October 2019
Orbit: 549 x 551 km, 53.0° (Epoch: 21 November)

Event Time Altitude Azimuth Distance (km) Brightness Sun altitude
Rises 16:38:33 0° 272° (W) 2,720 9.2 -12.9°
Reaches altitude 10° 16:40:47 10° 271° (W) 1,826 7.8 -13.2°
Maximum altitude 16:44:55 71° 187° (S) 584 3.7 -13.8°
Enters shadow 16:47:24 23° 107° (ESE) 1,192 4.7 -14.2°
